Hourly Weather Roundup
Issued by NWS Central Illinois

Home | Current Version | Previous Version | Text Only | Print | Product List | Glossary On
Versions: 1 2 3 4 5 6 7 8 9 10 11 12 13 14 15 16 17 18 19 20 21 22 23 24 25 26 27 28 29 30 31 32 33 34 35 36 37 38 39 40 41 42 43 44 45 46 47 48 49 50
000
NZUS43 KILX 300510
HWRILX

Area Weather Roundup
National Weather Service Lincoln IL
1200 AM CDT THU MAR 30 2017

NOTE:  "FAIR" indicates few or no clouds below 12,000 feet, with
       no sigificant weather and/or obstructions to visibility.


CITY           SKY/WX    TMP DP  RH WIND       PRES   REMARKS
Bloomington    CLOUDY    48  46  93 NE16      29.84F
Champaign      CLOUDY    54  45  71 E17       29.83F
Danville       CLOUDY    52  46  79 E13       29.86F
Decatur        MOCLDY    53  47  79 E15       29.80F
Effingham      CLOUDY    58  51  79 E16       29.81F
Flora          CLOUDY    60  52  74 SE9       29.82F
Galesburg      CLOUDY    46  43  92 E18G28    29.80F
Jacksonville   TSTM      51  49  92 E16       29.75F
Lacon          TSTM      46  43  89 E13       29.88F
Lawrenceville  PTCLDY    57  50  77 E10       29.85F
Litchfield     MOCLDY    58  51  76 SE16      29.74F
$$


CITY           SKY/WX    TMP DP  RH WIND       PRES   REMARKS
Lincoln        TSTM      53  50  90 NE6       29.82F
Macomb         CLOUDY    48  47  97 E17G30    29.80F
Mattoon        CLOUDY    55  48  77 SE14      29.81F
Mt Carmel AP   PTCLDY    59  50  72 E13       29.84F
Olney-Noble AP CLOUDY    59  54  82 SE13      29.83F
Paris AP       CLOUDY    55  47  76 E12       29.87F
Peoria         LGT RAIN  48  46  93 E21       29.82F FOG
Pontiac        CLOUDY    47  44  91 E23       29.90F
Rantoul        CLOUDY    54  47  79 E16G23    29.85F
Robinson       PTCLDY    56  48  74 SE14G21   29.86F
Springfield      N/A     54  49  83 E10       29.79F
Taylorville    CLOUDY    55  50  82 E16G22    29.77F
$$

...REGIONAL REPORTS...


CITY           SKY/WX    TMP DP  RH WIND       PRES   REMARKS
Chicago O`Hare LGT RAIN  45  38  76 E17G25    30.00F
Kankakee       CLOUDY    46  37  71 E23G29    29.92F
Moline         RAIN      43  39  86 E23G33    29.84F WCI  34
Mount Sterling TSTM      56  55  99 SE21G30   29.76F VSB 1/2
Mount Vernon   MOCLDY    61  53  75 E13       29.78F
Pittsfield     CLOUDY    53  51  95 N8        29.76S
Quincy         LGT RAIN  53  52  96 E13       29.71F FOG
Rockford       LGT RAIN  43  38  82 NE22G29   29.99F WCI  34
$$


CITY           SKY/WX    TMP DP  RH WIND       PRES   REMARKS
Burlington     LGT RAIN  47  45  93 E22G29    29.77F
Cedar Rapids   LGT RAIN  41  41 100 E23       29.86F WCI  31
Des Moines     CLOUDY    44  41  89 E15G26    29.80F
Kirksville     CLOUDY    50  50 100 NE16      29.71F
Ottumwa        CLOUDY    45  43  93 E17       29.81F
St Louis       CLOUDY    61  54  77 SE13      29.71F
$$


CITY           SKY/WX    TMP DP  RH WIND       PRES   REMARKS
Terre Haute    CLOUDY    56  46  69 E12       29.87F
Evansville     CLOUDY    61  51  70 E10       29.85F
Indianapolis   CLOUDY    54  43  66 E15       29.92F
Lafayette      CLOUDY    48  43  82 E15G23    29.92F
Madison        LGT RAIN  38  36  92 NE13      30.06F FOG     WCI  30
Milwaukee      CLOUDY    40  36  86 NE14      30.09F WCI  32
$$






USA.gov is the U.S. government's official web portal to all federal, state and local government web resources and services.